This is the latest recevied weather packets stored in our database for station/object SV2ASS-2. If no packets are shown the sender has not sent any weather packets the latest 10 day(s).
| Time | Temp. | Humidity | Pressure | Rain* | Wind** | Luminosity | Snow |
|---|---|---|---|---|---|---|---|
| 1778159562 | 21.67° C | 56% | 1021.5 hPa | - | - | - | - |
| 1778158662 | 21.67° C | 58% | 1021.4 hPa | - | - | - | - |
| 1778157762 | 22.22° C | 60% | 1021.1 hPa | - | - | - | - |
| 1778156862 | 21.67° C | 63% | 1021.7 hPa | - | - | - | - |
| 1778155962 | 20.56° C | 63% | 1022.2 hPa | - | - | - | - |
| 1778155062 | 20° C | 63% | 1022.6 hPa | - | - | - | - |
| 1778154162 | 20.56° C | 62% | 1022.8 hPa | - | - | - | - |
| 1778153262 | 20° C | 65% | 1022.8 hPa | - | - | - | - |
| 1778152362 | 20° C | 65% | 1022.7 hPa | - | - | - | - |
| 1778151461 | 19.44° C | 60% | 1022.6 hPa | - | - | - | - |
| 1778150561 | 20.56° C | 59% | 1022.7 hPa | - | - | - | - |
| 1778149661 | 19.44° C | 61% | 1022.7 hPa | - | - | - | - |
| 1778148761 | 19.44° C | 61% | 1022.7 hPa | - | - | - | - |
| 1778147861 | 19.44° C | 60% | 1022.5 hPa | - | - | - | - |
| 1778146961 | 20.56° C | 54% | 1022.4 hPa | - | - | - | - |
| 1778146061 | 21.11° C | 46% | 1022.2 hPa | - | - | - | - |
| 1778145161 | 19.44° C | 54% | 1022 hPa | - | - | - | - |
| 1778144263 | 19.44° C | 53% | 1021.9 hPa | - | - | - | - |
| 1778143363 | 18.89° C | 53% | 1021.7 hPa | - | - | - | - |
| 1778142463 | 18.89° C | 51% | 1021.6 hPa | - | - | - | - |
| 1778141563 | 18.33° C | 55% | 1021.4 hPa | - | - | - | - |
| 1778140663 | 18.89° C | 55% | 1021.1 hPa | - | - | - | - |
| 1778139762 | 18.89° C | 54% | 1021.1 hPa | - | - | - | - |
| 1778138862 | 18.33° C | 56% | 1021 hPa | - | - | - | - |
| 1778137962 | 17.78° C | 56% | 1021 hPa | - | - | - | - |
* Rain since midnight (hover to see other rain measurements)
** Current wind speed in m/s (hover to see current wind gust speed)